This demonstration page uses our WeatherBlox Daily Observations layout. Learn more.

Left ArrowRight Arrow

36.19886, -115.1175

Hourly Observations for May 28, 2021

Temp ( °F °C ) Dew Point ( °F °C ) Humidity (%) Winds ( mph kmh ) Pressure ( in mb ) Visibility ( mi km ) Precip ( " mm )
12:53 am 00:53 Clear 80 26.7 25 -3.9 13 13 W 5 7 29.81 1009 10 16 N/A
1:53 am 01:53 Clear 78 25.6 25 -3.9 14 14 NNW 9 15 29.80 1009 10 16 N/A
2:53 am 02:53 Clear 74 23.3 23 -5 15 15 NNW 8 13 29.80 1009 10 16 N/A
3:53 am 03:53 Clear 73 22.8 24 -4.4 16 16 N N/A 29.81 1009 10 16 N/A
4:53 am 04:53 Clear 72 22.2 27 -2.8 19 19 W 3 6 29.81 1010 10 16 N/A
5:53 am 05:53 Sunny 72 22.2 27 -2.8 19 19 NNW 6 9 29.83 1010 10 16 N/A
6:53 am 06:53 Sunny 75 23.9 26 -3.3 16 16 NNW 8 13 29.85 1011 10 16 N/A
7:53 am 07:53 Sunny 80 26.7 26 -3.3 14 14 N 5 7 29.86 1011 10 16 N/A
8:53 am 08:53 Sunny 83 28.3 26 -3.3 12 12 NNE 3 6 29.86 1011 10 16 N/A
9:53 am 09:53 Sunny 86 30 25 -3.9 11 11 ESE 3 6 29.86 1011 10 16 N/A
10:53 am 10:53 Sunny 89 31.7 27 -2.8 11 11 E 7 11 29.85 1011 10 16 N/A
11:53 am 11:53 Sunny 92 33.3 27 -2.8 10 10 ESE 7 11 29.83 1010 10 16 N/A
12:53 pm 12:53 Sunny 95 35 22 -5.6 7 7 SSE 9 15 29.80 1009 10 16 N/A
1:53 pm 13:53 Sunny 97 36.1 21 -6.1 6 6 S 12 19 29.78 1009 10 16 N/A
2:53 pm 14:53 Sunny 97 36.1 20 -6.7 6 6 SE 10 17 29.76 1008 10 16 N/A
3:53 pm 15:53 Sunny 98 36.7 20 -6.7 6 6 SE 16 26 29.73 1007 10 16 N/A
4:53 pm 16:53 Sunny 99 37.2 19 -7.2 5 5 SE 10 17 29.70 1006 10 16 N/A
5:53 pm 17:53 Sunny 97 36.1 16 -8.9 5 5 ESE 9 15 29.69 1005 10 16 N/A
6:53 pm 18:53 Sunny 96 35.6 12 -11.1 4 4 SE 18 30 29.68 1005 10 16 N/A
7:53 pm 19:53 Clear 94 34.4 21 -6.1 7 7 SW 7 11 29.69 1005 10 16 N/A
8:53 pm 20:53 Clear 92 33.3 21 -6.1 7 7 SSW 7 11 29.70 1006 10 16 N/A
9:53 pm 21:53 Clear 89 31.7 22 -5.6 8 8 S 7 11 29.71 1006 10 16 N/A
10:53 pm 22:53 Clear 87 30.6 21 -6.1 9 9 SSW 9 15 29.71 1006 10 16 N/A
11:53 pm 23:53 Clear 86 30 20 -6.7 9 9 SSW 6 9 29.71 1006 10 16 N/A

Powered by AerisWeather